This demonstration page uses our WeatherBlox Daily Observations layout. Learn more.

Left ArrowRight Arrow

38.88101, -77.10428

Hourly Observations for June 17, 2020

Temp ( °F °C ) Dew Point ( °F °C ) Humidity (%) Winds ( mph kmh ) Pressure ( in mb ) Visibility ( mi km ) Precip ( " mm )
12:52 am 00:52 Cloudy 67 19.4 58 14.4 73 73 NE 10 17 30.23 1024 10 16 0.00 0.00
1:52 am 01:52 Cloudy 67 19.4 58 14.4 73 73 NE 15 24 30.21 1023 10 16 0.00 0.00
2:52 am 02:52 Cloudy 66 18.9 57 13.9 73 73 NE 17 28 30.18 1022 10 16 0.00 0.00
3:52 am 03:52 Cloudy with Light Rain 65 18.3 58 14.4 78 78 NE 12 19 30.16 1022 10 16 0.00 0.00
4:52 am 04:52 Cloudy 65 18.3 58 14.4 78 78 NE 12 19 30.17 1022 10 16 0.00 0.00
5:31 am 05:31 Cloudy 66 18.9 58 14.4 75 75 NE 14 22 30.19 1022 10 16 0.00 0.00
5:52 am 05:52 Cloudy 66 18.9 59 15 78 78 NE 13 20 30.18 1022 10 16 0.00 0.00
6:52 am 06:52 Mostly Cloudy 66 18.9 59 15 78 78 NNE 14 22 30.17 1022 10 16 0.00 0.00
7:52 am 07:52 Cloudy 66 18.9 59 15 78 78 NE 14 22 30.19 1023 10 16 0.00 0.00
8:52 am 08:52 Cloudy 67 19.4 60 15.6 79 79 NE 17 28 30.19 1023 10 16 0.00 0.00
9:52 am 09:52 Cloudy 68 20 61 16.1 78 78 NE 17 28 30.19 1022 10 16 0.00 0.00
10:52 am 10:52 Cloudy 69 20.6 61 16.1 76 76 NE 15 24 30.19 1022 9 14 0.00 0.00
11:52 am 11:52 Cloudy 70 21.1 62 16.7 76 76 NE 16 26 30.19 1022 10 16 0.00 0.00
12:52 pm 12:52 Cloudy 72 22.2 63 17.2 73 73 NE 14 22 30.18 1022 10 16 0.00 0.00
1:52 pm 13:52 Cloudy 71 21.7 63 17.2 76 76 NE 15 24 30.17 1022 10 16 0.00 0.00
2:52 pm 14:52 Cloudy 72 22.2 64 17.8 76 76 NE 18 30 30.14 1021 10 16 0.00 0.00
3:46 pm 15:46 Cloudy with Light Rain 70 21 64 18 83 83 NE 17 28 30.14 1021 5 8 0.00 0.00
3:52 pm 15:52 Cloudy with Light Rain 70 21.1 64 17.8 82 82 ENE 14 22 30.14 1021 3 5 0.00 0.00
4:05 pm 16:05 Cloudy with Light Rain 70 21.1 65 18.3 84 84 NE 16 26 30.14 1021 7 11 0.01 0.25
4:20 pm 16:20 Cloudy with Light Rain 70 21.1 65 18.3 84 84 ENE 14 22 30.15 1021 8 13 0.01 0.25
4:32 pm 16:32 Cloudy with Light Rain 70 21.1 65 18.3 84 84 ENE 15 24 30.14 1021 6 10 0.03 0.76
4:52 pm 16:52 Cloudy with Thunderstorms 69 20.6 66 18.9 90 90 NE 14 22 30.14 1021 8 13 0.05 1.27
5:08 pm 17:08 Cloudy with Thunderstorms 69 20.6 66 18.9 90 90 NE 12 19 30.14 1021 6 10 0.03 0.76
5:25 pm 17:25 Cloudy with Strong Thunderstorms 69 20.6 66 18.9 90 90 NE 15 24 30.13 1020 2 3 0.07 1.78
5:32 pm 17:32 Cloudy with Strong Thunderstorms 69 20.6 67 19.4 93 93 NNE 17 28 30.12 1020 1 1 0.24 6.10
5:36 pm 17:36 Cloudy with Strong Thunderstorms 68 20 66 18.9 93 93 NE 18 30 30.12 1020 1 2 0.29 7.37
5:42 pm 17:42 Cloudy with Thunderstorms 68 20 66 18.9 93 93 NNE 16 26 30.12 1020 2 2 0.34 8.64
5:49 pm 17:49 Cloudy with Thunderstorms 68 20 66 19 94 94 NE 15 24 30.12 1020 3 5 0.36 9.14
5:52 pm 17:52 Cloudy with Thunderstorms 69 20.6 66 18.9 90 90 NE 15 24 30.12 1020 4 6 0.36 9.14
6:08 pm 18:08 Cloudy with Rain 68 20 66 18.9 93 93 NNE 13 20 30.12 1020 1 2 0.16 4.06
6:12 pm 18:12 Cloudy with Light Rain 68 20 66 18.9 93 93 NNE 12 19 30.12 1020 2 3 0.17 4.32
6:15 pm 18:15 Cloudy with Rain 68 20 66 18.9 93 93 NNE 14 22 30.11 1020 3 5 0.17 4.32
6:41 pm 18:41 Cloudy 69 20.6 67 19.4 93 93 NNE 12 19 30.11 1020 10 16 0.19 4.83
6:52 pm 18:52 Cloudy with Rain 69 20.6 67 19.4 93 93 NE 12 19 30.11 1020 5 8 0.19 4.83
7:02 pm 19:02 Cloudy with Light Rain 69 20.6 67 19.4 93 93 NE 14 22 30.11 1020 10 16 0.01 0.25
7:08 pm 19:08 Cloudy with Light Rain 69 20.6 67 19.4 93 93 NE 14 22 30.11 1020 9 14 0.01 0.25
7:25 pm 19:25 Cloudy with Rain 69 20.6 67 19.4 93 93 NE 14 22 30.11 1020 3 4 0.03 0.76
7:27 pm 19:27 Cloudy with Rain 69 20.6 67 19.4 93 93 NE 15 24 30.12 1020 2 3 0.04 1.02
7:33 pm 19:33 Cloudy with Light Rain 69 20.6 67 19.4 93 93 NE 13 20 30.12 1020 2 3 0.05 1.27
7:41 pm 19:41 Cloudy with Light Rain 69 20.6 67 19.4 93 93 NE 12 19 30.12 1020 3 5 0.07 1.78
7:52 pm 19:52 Cloudy with Light Rain 69 20.6 67 19.4 93 93 NE 12 19 30.11 1020 6 10 0.07 1.78
8:06 pm 20:06 Cloudy with Light Rain 69 20.6 67 19.4 93 93 NE 15 24 30.11 1020 6 10 0.01 0.25
8:08 pm 20:08 Cloudy with Light Rain 69 20.6 67 19.4 93 93 NE 14 22 30.11 1020 7 11 0.01 0.25
8:21 pm 20:21 Cloudy with Heavy Rain 69 20.6 67 19.4 93 93 NE 17 28 30.11 1020 3 4 0.03 0.76
8:23 pm 20:23 Cloudy with Rain 69 20.6 67 19.4 93 93 NE 15 24 30.11 1020 3 4 0.04 1.02
8:28 pm 20:28 Cloudy with Light Rain 69 20.6 67 19.4 93 93 NE 16 26 30.11 1020 3 5 0.04 1.02
8:52 pm 20:52 Cloudy 69 20.6 67 19.4 93 93 ENE 14 22 30.10 1019 10 16 0.05 1.27
9:52 pm 21:52 Cloudy 69 20.6 67 19.4 93 93 ENE 14 22 30.11 1020 10 16 0.00 0.00
10:45 pm 22:45 Cloudy with Heavy Rain 69 20.6 67 19.4 93 93 ENE 13 20 30.11 1020 3 4 0.09 2.29
10:50 pm 22:50 Cloudy with Light Rain 70 21 66 19 88 88 ENE 13 20 30.11 1020 4 6 0.11 2.79
10:52 pm 22:52 Cloudy with Light Rain 69 20.6 67 19.4 93 93 ENE 14 22 30.10 1019 4 6 0.11 2.79
11:32 pm 23:32 Cloudy with Drizzle 68 20 66 18.9 93 93 ENE 10 17 30.10 1019 7 11 0.02 0.51
11:52 pm 23:52 Cloudy 68 20 66 18.9 93 93 ENE 12 19 30.09 1019 10 16 0.02 0.51

Powered by AerisWeather